Location: Gwatt
(46.7204°N, 7.6223°E)
Time: 01:29:30
(UTC+00:00)

Cosmos 1025 Rocket - Pass Details

Date: 18 September 2020
Orbit: 595 x 617 km, 82.5° (Epoch: 29 October)

Event Time Altitude Azimuth Distance (km) Brightness Sun altitude
Rises 18:45:56 0° 354° (N) 2,886 6.8 -12.9°
Reaches altitude 10° 18:48:13 10° 360° (N) 1,980 5.9 -13.3°
Maximum altitude 18:52:30 53° 77° (ENE) 757 3.2 -14.0°
Enters shadow 18:56:09 14° 153° (SSE) 1,726 4.9 -14.6°
